Hourly Data Report for September 15, 2017

All times are specified in Local Standard Time (LST). Add 1 hour to adjust for Daylight Saving Time where and when it is observed.

PANGNIRTUNG
NUNAVUT

66°08'36.300" N
65°42'40.500" W
22.60 m
2403049
71826
WXP

Download Data

Hourly Data (September 2017)
Hourly Data Report for September 15, 2017
Temp Definition
°C
Dew Point Temp Definition
°C
Rel Hum Definition
%
Wind Dir Definition
10's deg

Wind Spd Definition
km/h
Visibility Definition
km
Stn Press Definition
kPa
Hmdx Definition


Wind Chill Definition


Weather Definition


TIME
00:00 2.1 1.9 99 25 9   99.64     LegendNANA
01:00 1.9 1.8 100 24 7   99.67     LegendNANA
02:00 1.4 1.4 100 24 8   99.70     LegendNANA
03:00 1.3 1.3 100 23 3   99.72     LegendNANA
04:00 1.4 1.4 100 23 1   99.75     LegendNANA
05:00 1.4 1.4 100 0 1   99.76     LegendNANA
06:00 1.8 1.6 99   0   99.78     LegendNANA
07:00 2.6 2.0 96 23 6   99.82     LegendNANA
08:00 3.1 1.0 86 25 1   99.86     LegendNANA
09:00 3.8 -0.6 73 2 3   99.88     LegendNANA
10:00 4.1 -0.9 70 31 1   99.89     LegendNANA
11:00 4.2 -1.7 65 7 3   99.91     LegendNANA
12:00 4.0 0.0 76 26 9   99.95     LegendNANA
13:00 3.5 1.9 89 25 17   99.99     LegendNANA
14:00 3.3 1.9 91 25 16   100.02     LegendNANA
15:00 2.6 1.6 93 26 16   100.06     LegendNANA
16:00 2.4 1.7 95 25 17   100.10     LegendNANA
17:00 2.2 1.6 96 25 12   100.15     LegendNANA
18:00 2.0 1.6 97 24 10   100.17     LegendNANA
19:00 2.1 1.4 95 23 4   100.18     LegendNANA
20:00 1.7 1.1 96 22 3   100.19     LegendNANA
21:00 1.7 1.2 97 24 6   100.19     LegendNANA
22:00 1.4 0.6 95 0 1   100.17     LegendNANA
23:00 1.6 0.9 95 25 4   100.17     LegendNANA

Notes on Data Quality.

Legend

  • E = Estimated
  • M = Missing
  • NA = Not Available
  • ‡ = Partner data that is not subject to review by the National Climate Archives
Date modified: